Weather History for MDST - January, 2014

Change the Weather History Date:

Tuesday, January 28, 2014

  Actual Average Record
Temperature  
Mean Temperature 76 °F -  
Max Temperature 87 °F 85 °F 89 °F (1998)
Min Temperature 66 °F 65 °F 60 °F (2004)
Cooling Degree Days 12    
Growing Degree Days 26 (Base 50)    
Moisture  
Dew Point 68 °F    
Average Humidity 82    
Maximum Humidity 100    
Minimum Humidity 55    
Precipitation  
Precipitation 0.00 in 0.06 in - ()
Sea Level Pressure  
Sea Level Pressure 30.02 in    
Wind  
Wind Speed 7 mph ()    
Max Wind Speed 23 mph    
Max Gust Speed -    
Visibility 6.1 miles    
Events Rain    
Averages and records for this station are not official NWS values.
T = Trace of Precipitation, MM = Missing Value Source: Averaged Metar Reports

Daily Weather History Graph

Daily Weather History Graph

Search for Another Location

Airport or City:

Trip Planner

Search our weather history database for the weather conditions in past years. The results will help you decide how hot, cold, wet, or windy it might be!

Date:

Astronomy

Jan. 28, 2014 Rise Set
Actual Time 7:18 AM AST 6:32 PM AST
Civil Twilight 6:55 AM AST 6:55 PM AST
Nautical Twilight 6:28 AM AST 7:22 PM AST
Astronomical Twilight 6:02 AM AST 7:48 PM AST
Moon 4:51 AM AST (1/28) 4:23 PM AST (1/28)
Length of Visible Light 12h 00m
Length of Day
11h 14m
Waning Crescent, 7% of the Moon is Illuminated
Jan 28
Waning Crescent
Jan 30
New
Feb 6
First Quarter
Feb 14
Full
Feb 22
Last Quarter

Hourly Weather History & Observations

Time (AST) Temp. Heat Index Dew Point Humidity Pressure Visibility Wind Dir Wind Speed Gust Speed Precip Events Conditions
12:00 AM 71.6 °F - 68.0 °F 88% 30.04 in 6.2 mi East 6.9 mph - N/A   Partly Cloudy
1:00 AM 71.6 °F - 68.0 °F 88% 30.04 in 6.2 mi East 6.9 mph - N/A   Partly Cloudy
2:00 AM 69 °F - 67 °F 92% 30.02 in 6 mi ESE 4.5 mph - -   Haze
2:00 AM 68.0 °F - 66.2 °F 94% 30.01 in 6.2 mi ESE 4.6 mph - N/A   Partly Cloudy
3:00 AM 68.0 °F - 66.2 °F 94% 30.01 in 6.2 mi Calm Calm - N/A   Partly Cloudy
4:00 AM 68.0 °F - 68.0 °F 100% 29.98 in 6.2 mi Calm Calm - N/A   Partly Cloudy
5:00 AM 71 °F - 66 °F 81% 29.99 in 6 mi East 8.9 mph - -   Haze
5:00 AM 71.6 °F - 66.2 °F 83% 29.98 in 6.2 mi East 9.2 mph - N/A   Scattered Clouds
6:00 AM 71.6 °F - 66.2 °F 83% 30.01 in 6.2 mi SE 4.6 mph - N/A   Scattered Clouds
7:00 AM 71.6 °F - 69.8 °F 94% 30.01 in 6.2 mi Calm Calm - N/A   Scattered Clouds
8:00 AM 69 °F - 65 °F 84% 30.04 in 6 mi ESE 6.7 mph - -   Haze
8:00 AM 69.8 °F - 66.2 °F 88% 30.04 in 6.2 mi ESE 6.9 mph - N/A   Scattered Clouds
9:00 AM 73.4 °F - 68.0 °F 83% 30.06 in 6.2 mi ESE 4.6 mph - N/A   Partly Cloudy
10:00 AM 77.0 °F - 69.8 °F 78% 30.06 in 6.2 mi East 9.2 mph - N/A   Partly Cloudy
11:00 AM 78 °F - 69 °F 67% 30.08 in 6 mi ESE 13.4 mph - -   Haze
11:00 AM 77.0 °F - 69.8 °F 78% 30.06 in 6.2 mi ESE 13.8 mph - N/A   Scattered Clouds
12:00 PM 82.4 °F 86.3 °F 69.8 °F 66% 30.04 in 6.2 mi SSE 11.5 mph - N/A   Scattered Clouds
1:00 PM 82.4 °F 86.3 °F 69.8 °F 66% 30.04 in 6.2 mi SSE 17.3 mph - N/A   Scattered Clouds
2:00 PM 84.2 °F 87.3 °F 68.0 °F 58% 30.01 in 6.2 mi ESE 11.5 mph - N/A   Mostly Cloudy
3:00 PM 86.0 °F 89.4 °F 68.0 °F 55% 29.98 in 6.2 mi SE 11.5 mph - N/A   Scattered Clouds
4:00 PM 86.0 °F 89.4 °F 68.0 °F 55% 29.95 in 6.2 mi ESE 9.2 mph - N/A   Scattered Clouds
5:00 PM 84.2 °F 89.6 °F 71.6 °F 66% 29.95 in 6.2 mi ESE 11.5 mph - N/A   Partly Cloudy
6:00 PM 82.4 °F 85.4 °F 68.0 °F 62% 29.98 in 6.2 mi ESE 17.3 mph - N/A   Scattered Clouds
7:00 PM 71.6 °F - 69.8 °F 94% 30.01 in 5.0 mi SE 18.4 mph - N/A Rain Light Rain
7:02 PM 75.2 °F - 71.6 °F 89% 30.01 in 4.3 mi ESE 23.0 mph - N/A   Mostly Cloudy
8:00 PM 71 °F - 70 °F 95% 30.06 in 6 mi ESE 13.4 mph - -   Haze
8:00 PM 71.6 °F - 69.8 °F 94% 30.04 in 6.2 mi ESE 11.5 mph - N/A   Mostly Cloudy
9:00 PM 71.6 °F - 68.0 °F 88% 30.06 in 6.2 mi ENE 4.6 mph - N/A   Mostly Cloudy
10:00 PM 71.6 °F - 69.8 °F 94% 30.06 in 6.2 mi ENE 5.8 mph - N/A   Mostly Cloudy
11:00 PM 71 °F - 69 °F 92%  in 6 mi SSE 4.5 mph - -  
11:00 PM 71.6 °F - 69.8 °F 94% 30.06 in 6.2 mi SSE 4.6 mph - N/A   Scattered Clouds